Flight Information

DEPARTURE
BOISE, ID
Elevation:
2871
Runways:
10L/28R - 10000x150 - ASPH-G
10R/28L - 9763x150 - ASPH-G
Active PE Departure:
10L - 10R
Current PE ATIS:
R
Altimeter:
29.96
Remarks:
V F R DEPARTURES CONTACT CLEARANCE DELIVERY, ADVISE ON COURSE HEADING, ALTITUDE, AND IF FLIGHT FOLLOWING IS REQUESTED.
ATIS:
123.9
Clearance Delivery:
125.9
Ground:
121.7
Tower:
BOISE TOWER 118.1
DESTINATION
,
Elevation:
TPA:
1000 (est.)


6520.2 NM71° True-17° Var54° HDG

Flight Plan:
(click to file on line)

1. Type
2. Aircraft Identification
3. Aircraft Type / Special Equipment
4. True Airspeed
kts
5. Departure Airport
(ICAO code)
6. Arriving Airport
(ICAO code)
7. Cruising Altitude
ft
8. Alternate Airport
(ICAO code)
9. Route of Flight
10. Remarks


00:00:00 Departure ATIS: Destination ATIS:

Clearance Limit:
Route:
Altitude: Expect in minutes
Frequency:
Transponder: (7500 Hijack / 7600 Lost Comms / 7700 Emergency)


KBOI 100553Z 11016KT 10SM OVC070 02/M06 A2994 RMK AO2 SLP152 T00221061 10022 21011 58022
Time: 2022-12-10T05:53:00Z
1670652555
Winds: 110 @ 16 kts
Visibility: 10.0 sm
Clouds (AGL): OVC 7000
Temperature: 2.2 C
Dew Point: -6.1 C
Pressure: 29.940945 in Hgbr


Notes:

Data extracted from FAA Digital Chart Supplement. Effective: 0901Z Thursday, 27 JAN 2022 to 0900z Thursday, 24 MAR 2022
Current ATIS data is provided courtisy of PilotEdge.